| time (UTC) | temp F | wind direction | speed MPH | gust MPH | rain 1hr in | rain 24hr in | rain mn in | humidity % | barometer mb |
| 20260504231550 | 66 | 0 | 0.0 | 2.0 | 0.00 | 0.00 | 0.00 | 44 | 1006.4 |
| 20260504230050 | 67 | 0 | 0.0 | 1.0 | 0.00 | 0.00 | 0.00 | 41 | 1006.0 |
| 20260504224550 | 68 | 0 | 0.0 | 2.0 | 0.00 | 0.00 | 0.00 | 39 | 1005.9 |
| 20260504223100 | 69 | 0 | 2.0 | 6.0 | 0.00 | 0.00 | 0.00 | 35 | 1005.8 |
| 20260504221550 | 69 | 0 | 0.0 | 5.0 | 0.00 | 0.00 | 0.00 | 34 | 1005.9 |
| 20260504220050 | 70 | 0 | 0.0 | 2.0 | 0.00 | 0.00 | 0.00 | 35 | 1005.8 |
| 20260504214551 | 71 | 304 | 1.0 | 10.0 | 0.00 | 0.00 | 0.00 | 32 | 1005.8 |
| 20260504213100 | 72 | 198 | 1.0 | 6.0 | 0.00 | 0.00 | 0.00 | 32 | 1005.6 |
| 20260504211549 | 72 | 0 | 0.0 | 5.0 | 0.00 | 0.00 | 0.00 | 33 | 1005.9 |
| 20260504210045 | 73 | 196 | 0.0 | 5.0 | 0.00 | 0.00 | 0.00 | 32 | 1005.6 |
| 20260504204547 | 72 | 336 | 2.0 | 6.0 | 0.00 | 0.00 | 0.00 | 31 | 1005.6 |
| 20260504203059 | 73 | 319 | 2.0 | 9.0 | 0.00 | 0.00 | 0.00 | 31 | 1005.6 |
| 20260504201540 | 73 | 0 | 2.0 | 9.0 | 0.00 | 0.00 | 0.00 | 31 | 1005.6 |
| 20260504200046 | 73 | 0 | 2.0 | 9.0 | 0.00 | 0.00 | 0.00 | 33 | 1005.9 |
| 20260504194546 | 72 | 0 | 0.0 | 6.0 | 0.00 | 0.00 | 0.00 | 31 | 1005.8 |
| 20260504193044 | 74 | 249 | 1.0 | 9.0 | 0.00 | 0.00 | 0.00 | 30 | 1005.8 |
| 20260504191548 | 73 | 0 | 1.0 | 8.0 | 0.00 | 0.00 | 0.00 | 30 | 1005.9 |
| 20260504190051 | 74 | 223 | 2.0 | 10.0 | 0.00 | 0.00 | 0.00 | 31 | 1006.0 |
| 20260504184547 | 74 | 0 | 2.0 | 11.0 | 0.00 | 0.00 | 0.00 | 29 | 1005.9 |
| 20260504183046 | 72 | 242 | 3.0 | 10.0 | 0.00 | 0.00 | 0.00 | 29 | 1006.0 |
| 20260504181549 | 71 | 5 | 1.0 | 12.0 | 0.00 | 0.00 | 0.00 | 31 | 1006.0 |
| 20260504180051 | 69 | 0 | 2.0 | 9.0 | 0.00 | 0.00 | 0.00 | 33 | 1006.0 |
| 20260504174554 | 69 | 259 | 0.0 | 10.0 | 0.00 | 0.00 | 0.00 | 31 | 1006.2 |
| 20260504173050 | 72 | 136 | 1.0 | 10.0 | 0.00 | 0.00 | 0.00 | 32 | 1006.3 |
| 20260504171554 | 72 | 215 | 2.0 | 12.0 | 0.00 | 0.00 | 0.00 | 30 | 1006.4 |
| 20260504081553 | 36 | 0 | 0.0 | 0.0 | 0.00 | 0.01 | 0.00 | 92 | 1009.5 |
| 20260504044559 | 32 | 0 | 0.0 | 0.0 | 0.00 | 0.01 | 0.00 | 90 | 1009.5 |
| 20260504043057 | 32 | 0 | 0.0 | 0.0 | 0.00 | 0.01 | 0.00 | 89 | 1009.6 |
| 20260504041544 | 33 | 0 | 0.0 | 0.0 | 0.00 | 0.01 | 0.00 | 88 | 1009.5 |
| 20260504040105 | 33 | 0 | 0.0 | 0.0 | 0.00 | 0.01 | 0.00 | 88 | 1009.4 |
| 20260504034609 | 34 | 0 | 0.0 | 0.0 | 0.00 | 0.01 | 0.01 | 87 | 1009.4 |
| 20260504033051 | 34 | 0 | 0.0 | 0.0 | 0.00 | 0.01 | 0.01 | 86 | 1009.3 |
| 20260504031546 | 35 | 0 | 0.0 | 0.0 | 0.00 | 0.01 | 0.01 | 85 | 1009.2 |
| 20260504024549 | 36 | 0 | 0.0 | 0.0 | 0.00 | 0.01 | 0.01 | 83 | 1009.2 |
| 20260504023051 | 37 | 0 | 0.0 | 0.0 | 0.00 | 0.01 | 0.01 | 82 | 1009.2 |
| 20260504021552 | 38 | 0 | 0.0 | 0.0 | 0.00 | 0.01 | 0.01 | 80 | 1009.2 |
| 20260504020047 | 39 | 0 | 0.0 | 0.0 | 0.00 | 0.01 | 0.01 | 79 | 1009.1 |
| 20260504014545 | 39 | 0 | 0.0 | 0.0 | 0.00 | 0.03 | 0.01 | 77 | 1009.1 |
| 20260504013051 | 40 | 0 | 0.0 | 0.0 | 0.00 | 0.03 | 0.01 | 76 | 1008.9 |
| 20260504011551 | 41 | 0 | 0.0 | 0.0 | 0.00 | 0.03 | 0.01 | 74 | 1009.0 |
| 20260504010048 | 42 | 0 | 0.0 | 0.0 | 0.00 | 0.03 | 0.01 | 70 | 1008.9 |
| 20260504004546 | 43 | 0 | 0.0 | 0.0 | 0.00 | 0.09 | 0.01 | 67 | 1008.5 |
| 20260504003048 | 45 | 0 | 0.0 | 0.0 | 0.00 | 0.09 | 0.01 | 63 | 1008.3 |
| 20260504001600 | 45 | 0 | 1.0 | 8.0 | 0.00 | 0.09 | 0.01 | 56 | 1008.0 |
| 20260504000054 | 46 | 0 | 0.0 | 7.0 | 0.00 | 0.09 | 0.01 | 58 | 1007.7 |
| 20260503234544 | 47 | 0 | 0.0 | 2.0 | 0.00 | 0.10 | 0.01 | 54 | 1007.5 |
| 20260503233048 | 48 | 0 | 1.0 | 7.0 | 0.00 | 0.10 | 0.01 | 51 | 1007.3 |